Regional Weather Roundup
Issued by NWS

Home | Current Version | Previous Version | Graphics & Text | Print | Product List | Glossary On
Versions: 1 2 3 4 5 6 7 8 9 10 11 12 13 14 15 16 17 18 19 20 21 22 23 24 25 26 27 28 29 30 31 32 33 34 35 36 37 38 39 40 41 42 43 44 45 46 47 48 49 50
131
ASUS43 KMKX 112110
RWRWI

WISCONSIN REGIONAL WEATHER ROUNDUP
NATIONAL WEATHER SERVICE MILWAUKEE/SULLIVAN WI
300 PM CST THU FEB 11 2016

NOTE: "FAIR" INDICATES FEW OR NO CLOUDS BELOW 12,000 FEET WITH NO
SIGNIFICANT WEATHER AND/OR OBSTRUCTIONS TO VISIBILITY.

WIZ001-002-006>008-014>016-023>028-112200-
NORTHWEST WISCONSIN

CITY           SKY/WX    TMP DP  RH WIND       PRES   REMARKS
SUPERIOR ARPT  CLOUDY    15  -4  42 W9        30.20F WCI   3
ASHLAND        CLOUDY    14  -3  47 W9        30.18F WCI   2
HAYWARD        CLOUDY    13  -7  40 SW12      30.17F HAZE    WCI  -1
SIREN          CLOUDY    13  -6  43 W9        30.21F WCI   1
CUMBERLAND     CLOUDY    12  -6  44 SW7       30.18F WCI   2
RICE LAKE      CLOUDY    14  -4  44 SW3       30.21F
CHETEK         CLOUDY    14  -7  38 W5        30.21F WCI   6
LADYSMITH      CLOUDY    16  -6  38 SW7       30.19F WCI   6
EAU CLAIRE     PTSUNNY   14  -4  44 W7        30.23F WCI   4
MENOMONIE      PTSUNNY   24  -3  30 SW3       30.24S
NEW RICHMOND   CLOUDY    15  -1  47 SW5       30.23S WCI   8
OSCEOLA        CLOUDY    17  -1  45 W6        30.25F WCI   8
$$

WIZ003>005-009-010-017-018-112200-
NORTH CENTRAL WISCONSIN

CITY           SKY/WX    TMP DP  RH WIND       PRES   REMARKS
MANITOWISH WTR PTSUNNY   13  -4  47 SW8       30.10F WCI   1
ARBOR VITAE    SUNNY     17  -1  46 SW6       30.10F WCI   8
WOODRUFF       SUNNY     17  -1  46 SW6       30.10F WCI   8
RHINELANDER    SUNNY     15  -5  40 W12       30.11F WCI   2
EAGLE RIVER    SUNNY     14  -6  39 W7        30.09F WCI   4
LAND O LAKES   PTSUNNY   15  -1  49 NW5       30.09S WCI   7
PHILLIPS       CLOUDY    13  -6  41 SW9       30.13F WCI   1
TOMAHAWK       MOSUNNY   15  -9  34 W9        30.13F WCI   3
MEDFORD        PTSUNNY   11  -2  53 SW6       30.15F WCI   2
MERRILL        MOSUNNY   18  -3  39 SW6       30.16F WCI   9
$$

WIZ029-030-035-036-043>047-112200-
CENTRAL WISCONSIN

CITY           SKY/WX    TMP DP  RH WIND       PRES   REMARKS
WAUSAU         SUNNY     14  -3  47 W8        30.17F WCI   3
MOSINEE        SUNNY     12  -4  48 W9        30.18F WCI   0
MARSHFIELD     SUNNY     14  -4  44 W7        30.18F WCI   4
STEVENS POINT  SUNNY     14  -7  38 NW5       30.20F WCI   6
WAUPACA        SUNNY     20  -3  36 SW8       30.22F WCI  11
WAUTOMA        SUNNY     19  -4  36 W8        30.23F WCI   9
WISC RAPIDS    SUNNY     16  -5  39 W8        30.22F WCI   5
CAMP DOUGLAS   MOSUNNY   18  -6  35 W8        30.22F WCI   7
$$

WIZ011>013-019>022-031-037>040-048>050-112200-
NORTHEAST WISCONSIN

CITY           SKY/WX    TMP DP  RH WIND       PRES   REMARKS
ANTIGO         SUNNY     15  -3  46 W12       30.13S WCI   1
SHAWANO        SUNNY     21   0  39 SW10      30.20S WCI  10
OCONTO         SUNNY     18   1  45 SW9       30.19F WCI   7
STURGEON BAY   SUNNY     16   1  53 SW13      30.21F WCI   2
GREEN BAY      SUNNY     17   2  51 W10       30.21F WCI   5
MANITOWOC      SUNNY     17   3  54 W12       30.23F WCI   4
APPLETON       MOSUNNY   18  -2  41 SW14      30.20F WCI   4
CLINTONVILLE   SUNNY     19  -4  35 W10       30.20S WCI   8
OSHKOSH        SUNNY     17   0  47 W7        30.22F WCI   8
$$

WIZ032>034-041-042-053>061-112200-
SOUTHWEST WISCONSIN

CITY           SKY/WX    TMP DP  RH WIND       PRES   REMARKS
LA CROSSE      MOSUNNY   19  -2  39 SW8       30.26F WCI   9
SPARTA         SUNNY     19  -4  37 W6        30.25F WCI  10
VIROQUA        PTSUNNY   18  -1  43 W7        30.21F WCI   8
BOSCOBEL       MOSUNNY   20  -1  40 SW7       30.28F WCI  11
PRAIRIE DU CHI SUNNY     18  -4  39 CALM      30.29F
PLATTEVILLE    SUNNY     17   2  53 CALM      30.26F
$$

WIZ056-057-062-063-064-067-068-112200-
SOUTH CENTRAL WISCONSIN

CITY           SKY/WX    TMP DP  RH WIND       PRES   REMARKS
REEDSBURG      SUNNY     17  -3  40 SW7       30.24F WCI   8
BARABOO/DELLS  SUNNY     17  -3  40 SW7       30.23F WCI   7
LONE ROCK      SUNNY     19  -2  39 W6        30.27F WCI  11
MINERAL POINT  SUNNY     19   0  42 W7        30.24F WCI  10
MADISON        MOSUNNY   18  -3  39 VRB5      30.25F WCI  11
MIDDLETON      MOSUNNY   20  -4  34 NW6       30.25F WCI  13
WATERTOWN      SUNNY     17   1  48 NW6       30.25F WCI   9
MONROE         SUNNY     21   1  42 W5        30.24F WCI  15
JANESVILLE     SUNNY     21   1  42 W6        30.27F WCI  14
$$

WIZ051-052-058>065-066-070>072-112200-
SOUTHEAST WISCONSIN

CITY           SKY/WX    TMP DP  RH WIND       PRES   REMARKS
MILWAUKEE      MOSUNNY   19  -1  41 W8        30.26F WCI   9
WAUKESHA       SUNNY     16   0  48 W7        30.26F WCI   6
MILWAUKEE/TIMM SUNNY     18  -2  41 W9        30.27F WCI   6
RACINE         SUNNY     19  -1  41 SW7       30.28F WCI  10
BURLINGTON     SUNNY     18   0  46 SW8       30.26F WCI   7
KENOSHA        SUNNY     19   3  49 W7        30.26F WCI  10
FOND DU LAC    SUNNY     16  -2  45 W9        30.23F WCI   4
SHEBOYGAN      SUNNY     15   0  51 W10       30.23F WCI   2
WEST BEND      SUNNY     18   1  49 CALM      30.23F
JUNEAU         SUNNY     15   0  51 SW7       30.25F WCI   5
$$

LSZ147-162-112200-
LAKE SUPERIOR

STATION/POSITION TIME  TEMP    WIND        PRES    WAVE
                       AIR SEA DIR/SP/G            HT/PER
                 (UTC) (F)     (DEG/KT/KT) (MB)    (FT/S)
DEVILS ISLAND    2000   13     230/ 15/ 18 1023.0F
SAXON HARBOR     2040   16                 1021.3F
$$

LMZ867-665-643>646-112200-
LAKE MICHIGAN

STATION/POSITION TIME  TEMP    WIND        PRES    WAVE
                       AIR SEA DIR/SP/G            HT/PER
                 (UTC) (F)     (DEG/KT/KT) (MB)    (FT/S)
CHAMBERS ISLAND  2000   17     210/  8/ 13 1022.7F
ALGOMA LAKESHORE 2041          250/  7/ 12   N/A
KEWAUNEE LAKESHO 2000   15     260/ 13/ 15 1022.6F
SHEBOYGAN LAKESH 2100   16     280/  9/ 11 1025.6F
PORT WASHINGTON  2040   19     270/  6/ 10 1025.4F
MILWAUKEE LAKESH 2010   17     280/  9/ 11   N/A
KENOSHA   LAKESH 2100   19     290/  7/ 12 1025.1F
$$

TC  - TEMPERATURE IN CELSIUS
VSB - VISIBILITY IN STATUTE MILES
WCI - WIND CHILL INDEX
HX  - HEAT INDEX





USA.gov is the U.S. government's official web portal to all federal, state and local government web resources and services.